Location: Cañada de la Miga
(34.7595°N, 106.2317°W)
Time: 13:08:01
(UTC+00:00)

deb Explorer IX - Visible Passes

Search period start: 08 December 2021 00:00
Search period end: 18 December 2021 00:00
Orbit: 545 x 1085 km, 38.8° (Epoch: 07 December)

Date Brightness Start Highest point End Pass type
(mag) Time Alt. Az. Time Alt. Az. Time Alt. Az.
08 Dec ? 13:23:07 10° SSW 13:27:53 24° SE 13:32:10 10° E visible
09 Dec ? 12:57:51 10° SSW 13:02:48 24° SE 13:07:15 10° E visible
10 Dec ? 12:32:34 10° SSW 12:37:41 25° SE 12:42:18 10° E visible
11 Dec ? 12:07:18 10° SSW 12:12:33 25° SE 12:17:19 10° E visible
12 Dec ? 11:42:00 10° SSW 11:47:23 25° SE 11:52:19 10° E visible
12 Dec ? 13:27:39 10° WSW 13:34:08 74° SSE 13:39:42 10° ENE visible
13 Dec ? 11:18:46 17° S 11:22:12 26° SE 11:27:16 10° E visible
13 Dec ? 13:02:20 10° WSW 13:08:59 74° SSE 13:14:43 10° ENE visible
14 Dec ? 10:56:12 25° SSE 10:57:00 26° SE 11:02:12 10° E visible
14 Dec ? 12:37:25 12° WSW 12:43:47 73° SSE 12:49:42 10° ENE visible
15 Dec ? 10:33:18 24° ESE 10:33:18 24° ESE 10:37:05 10° E visible
15 Dec ? 12:14:31 26° SW 12:18:34 73° SSE 12:24:39 10° ENE visible
16 Dec ? 10:10:10 17° ESE 10:10:10 17° ESE 10:11:56 10° E visible
16 Dec ? 11:51:22 48° SW 11:53:20 73° SSE 11:59:35 10° ENE visible
16 Dec ? 13:34:02 10° W 13:40:38 63° N 13:46:20 10° ENE visible
17 Dec ? 11:28:02 72° SSE 11:28:03 72° SSE 11:34:28 10° ENE visible
17 Dec ? 13:09:13 12° W 13:15:24 64° N 13:21:17 10° ENE visible
